Change the Weather History Date:

Friday, September 27, 2013

  Actual Average Record
Temperature  
Mean Temperature 69 °F 49 °F  
Max Temperature 77 °F 60 °F 91 °F (1952)
Min Temperature 61 °F 37 °F 23 °F (1991)
Degree Days  
Heating Degree Days 0 16  
Month to date heating degree days 205 301  
Since 1 July heating degree days 425 482  
Cooling Degree Days 4 0  
Month to date cooling degree days 11 9  
Year to date cooling degree days 224 190  
Growing Degree Days 19 (Base 50)    
Moisture  
Dew Point 60 °F    
Average Humidity 76    
Maximum Humidity 87    
Minimum Humidity 64    
Precipitation  
Precipitation 0.08 in 0.10 in 1.08 in (1946)
Month to date precipitation 1.63 2.72  
Year to date precipitation 26.74 19.68  
Snow  
Snow 0.00 in 0.00 in 1.30 in (1993)
Month to date snowfall 0.0 0.1  
Since 1 July snowfall 0.0 0.1  
Since 1 September snowfall 0.0 0.1  
Snow Depth 0.00 in    
Sea Level Pressure  
Sea Level Pressure 29.79 in    
Wind  
Wind Speed 6 mph (South)    
Max Wind Speed 15 mph    
Max Gust Speed 23 mph    
Visibility 10 miles    
Events Rain , Thunderstorm    
T = Trace of Precipitation, MM = Missing Value Source: NWS Daily Summary

Daily Weather History Graph

Daily Weather History Graph

Search for Another Location

Airport or City:

Trip Planner

Search our weather history database for the weather conditions in past years. The results will help you decide how hot, cold, wet, or windy it might be!

Date:

Astronomy

Sep. 27, 2013 Rise Set
Actual Time 7:07 AM CDT 7:00 PM CDT
Civil Twilight 6:36 AM CDT 7:31 PM CDT
Nautical Twilight 5:59 AM CDT 8:08 PM CDT
Astronomical Twilight 5:22 AM CDT 8:45 PM CDT
Moon No Moon Rise 3:04 PM CDT (9/27)
Length of Visible Light 12h 55m
Length of Day
11h 52m
Last Quarter, 45% of the Moon is Illuminated
Sep 27
Last Quarter
Oct 4
New
Oct 11
First Quarter
Oct 18
Full
Oct 26
Last Quarter

Hourly Weather History & Observations

Time (CDT) Temp. Dew Point Humidity Pressure Visibility Wind Dir Wind Speed Gust Speed Precip Events Conditions
12:55 AM 62.1 °F 54.0 °F 75% 29.86 in 10.0 mi SSE 8.1 mph - N/A   Overcast
1:55 AM 63.0 °F 54.0 °F 72% 29.85 in 10.0 mi SSE 6.9 mph - N/A   Overcast
2:55 AM 64.0 °F 55.0 °F 73% 29.84 in 10.0 mi South 5.8 mph - N/A   Overcast
3:55 AM 64.0 °F 55.9 °F 75% 29.84 in 10.0 mi Variable 3.5 mph - N/A   Overcast
4:55 AM 62.1 °F 55.9 °F 80% 29.83 in 10.0 mi South 6.9 mph - N/A   Clear
5:55 AM 62.1 °F 55.9 °F 80% 29.84 in 10.0 mi SSE 3.5 mph - N/A   Clear
6:55 AM 62.1 °F 55.9 °F 80% 29.83 in 10.0 mi Variable 5.8 mph - N/A   Clear
7:55 AM 63.0 °F 57.0 °F 81% 29.82 in 10.0 mi Variable 6.9 mph - N/A   Clear
8:55 AM 64.0 °F 57.0 °F 78% 29.83 in 10.0 mi Variable 5.8 mph - N/A   Mostly Cloudy
9:55 AM 66.0 °F 59.0 °F 78% 29.83 in 10.0 mi Variable 5.8 mph - 0.00 in Rain Light Rain
10:55 AM 66.9 °F 60.1 °F 79% 29.80 in 10.0 mi Variable 6.9 mph - 0.00 in   Scattered Clouds
11:55 AM 70.0 °F 61.0 °F 73% 29.81 in 10.0 mi SSW 8.1 mph - N/A   Mostly Cloudy
12:36 PM 73.4 °F 62.6 °F 69% 29.80 in 10.0 mi SSW 8.1 mph 19.6 mph N/A   Mostly Cloudy
12:46 PM 73.4 °F 62.6 °F 69% 29.80 in 10.0 mi South 10.4 mph 18.4 mph N/A   Mostly Cloudy
12:55 PM 73.0 °F 62.1 °F 68% 29.79 in 10.0 mi SSW 6.9 mph 21.9 mph N/A   Mostly Cloudy
1:55 PM 75.0 °F 62.1 °F 64% 29.75 in 10.0 mi SSE 8.1 mph - N/A   Mostly Cloudy
2:55 PM 75.9 °F 62.1 °F 62% 29.73 in 10.0 mi South 9.2 mph 19.6 mph N/A   Mostly Cloudy
3:55 PM 75.0 °F 62.1 °F 64% 29.72 in 10.0 mi South 8.1 mph - N/A   Mostly Cloudy
4:55 PM 73.0 °F 61.0 °F 66% 29.72 in 10.0 mi SSE 11.5 mph 19.6 mph 0.00 in   Mostly Cloudy
5:55 PM 66.9 °F 64.0 °F 90% 29.75 in 9.0 mi Variable 5.8 mph - 0.08 in Rain , Thunderstorm Light Rain
6:10 PM 66.2 °F 64.4 °F 94% 29.75 in 10.0 mi Variable 6.9 mph - 0.00 in   Overcast
6:55 PM 66.9 °F 63.0 °F 87% 29.75 in 10.0 mi Calm Calm - 0.00 in   Overcast
7:55 PM 66.0 °F 63.0 °F 90% 29.74 in 10.0 mi SE 5.8 mph - 0.00 in   Overcast
8:55 PM 66.0 °F 63.0 °F 90% 29.73 in 10.0 mi SSE 5.8 mph - N/A   Overcast
9:55 PM 66.9 °F 62.1 °F 84% 29.72 in 10.0 mi SSE 4.6 mph - N/A   Partly Cloudy
10:55 PM 69.1 °F 62.1 °F 78% 29.72 in 10.0 mi SSE 6.9 mph - N/A   Mostly Cloudy
11:55 PM 68.0 °F 62.1 °F 81% 29.71 in 10.0 mi SSE 6.9 mph - N/A   Mostly Cloudy